Location: Maiden
(35.5760°N, 81.2120°W)
Time: 03:04:09
(UTC-04:00)

Vanguard 2 - Pass Details

Date: 09 August 2020
Orbit: 553 x 2937 km, 32.9° (Epoch: 20 September)

Event Time Altitude Azimuth Distance (km) Brightness Sun altitude
Rises 17:27:40 0° 181° (S) 6,457 12.3 33.7°
Reaches altitude 10° 17:36:01 10° 157° (SSE) 5,708 11.9 32.0°
Maximum altitude 17:42:28 13° 135° (SE) 5,500 11.6 30.7°
Drops below altitude 10° 17:48:51 10° 113° (ESE) 5,678 11.5 29.4°
Sets 17:56:53 0° 91° (E) 6,404 11.7 27.8°
